Probability
32 6 6 13 16 3 0 0 0 0 0 0 0 0 0 3 0 0 0 0 6 16 32 74 84 81 84 90 81 87 87 84 84 87 87 87 90 87 74 74 81 81 77 84 81 77 74 74 74
6 6 10 13 10 0 0 0 0 0 0 0 0 0 0 3 0 0 0 3 13 16 26 48 84 81 87 84 87 90 87 90 84 77 90 90 84 84 84 81 77 77 74 71 71 68 65 61 61
10 13 10 13 3 0 0 0 0 0 3 6 0 0 0 3 3 0 0 10 13 19 32 61 84 84 84 87 90 94 94 81 77 81 87 81 84 81 84 77 74 77 71 71 74 71 55 52 48
10 16 16 6 0 0 0 0 0 3 3 3 0 0 3 3 3 0 0 6 13 26 45 71 81 77 84 87 87 90 87 87 84 84 84 81 87 87 77 74 74 68 65 61 58 58 42 48 48
19 23 10 3 0 0 0 0 0 3 6 3 0 3 3 3 3 0 3 10 10 26 48 71 81 81 81 87 90 90 87 87 87 87 87 90 81 71 71 74 71 61 58 52 52 52 52 42 42
29 19 3 0 0 0 0 0 6 10 10 3 0 3 3 3 3 3 10 6 13 29 45 68 81 81 87 81 94 87 84 81 87 84 84 84 77 71 74 68 71 65 58 55 48 45 35 32 32
19 10 3 0 0 0 0 0 0 6 10 6 3 3 0 0 6 16 13 10 16 29 29 58 71 71 84 84 87 84 81 71 74 77 77 77 71 74 71 74 68 68 55 45 42 32 35 39 39
10 3 0 0 0 0 0 0 6 3 10 3 3 3 0 3 6 13 10 13 16 29 29 39 39 55 61 74 84 84 74 74 74 74 71 71 71 77 68 74 74 58 52 45 45 39 42 45 45
10 3 0 0 0 0 0 3 6 3 6 3 3 3 10 10 13 16 13 13 16 16 19 29 23 23 35 42 61 65 65 68 68 61 71 74 29 23 48 58 68 61 58 58 48 55 48 45 39
6 3 0 0 0 0 3 6 6 10 10 3 6 13 19 16 10 13 13 13 13 13 13 16 16 16 19 32 32 35 39 35 29 23 26 26 16 13 35 65 77 65 68 68 65 71 58 39 19
3 3 0 0 0 3 10 10 6 6 6 3 10 13 19 10 10 10 10 6 6 6 10 13 13 13 10 6 16 19 19 19 19 23 19 19 16 13 23 19 39 48 52 32 35 42 32 23 13
3 3 0 0 3 3 6 10 10 10 10 10 10 13 19 13 10 6 6 6 6 13 10 6 6 6 6 6 10 13 16 19 16 16 16 19 13 10 10 6 6 10 6 10 10 6 13 19 13
0 0 3 3 6 3 3 10 10 23 19 6 10 10 13 6 10 6 10 3 10 10 6 6 3 3 6 6 10 10 10 16 16 13 16 13 10 13 3 10 10 6 6 6 10 3 6 10 10
0 0 0 3 3 3 10 16 16 16 16 10 10 6 6 10 3 10 10 6 10 10 6 6 6 10 6 6 3 3 10 10 6 10 10 13 13 6 3 3 3 3 10 10 6 3 3 3 10
0 0 0 3 3 3 6 10 19 19 19 16 10 6 13 10 10 6 6 3 6 6 6 6 10 10 6 6 6 10 13 13 10 10 16 16 16 6 6 6 6 6 6 10 10 10 10 6 3
0 0 0 0 0 3 6 6 16 16 19 16 16 10 10 10 13 16 13 6 3 10 10 10 13 13 13 13 13 10 13 13 13 3 13 13 10 10 10 13 10 13 10 6 6 10 3 6 3
0 0 0 0 0 0 3 6 13 16 16 19 16 16 16 10 16 16 19 13 10 13 13 13 16 19 16 16 19 19 16 16 10 10 10 6 16 10 10 13 13 16 16 13 6 16 10 10 6
0 0 0 0 0 0 3 6 10 13 10 16 16 13 16 19 19 19 23 19 19 19 16 16 19 16 16 26 23 23 19 16 16 13 13 10 13 19 16 10 10 10 13 13 13 6 10 10 10
0 0 0 0 0 0 3 3 6 10 6 10 13 19 23 19 16 13 26 26 23 23 23 23 19 19 19 23 23 19 16 16 13 13 19 16 10 13 16 13 10 10 13 13 13 16 16 10 13
0 0 0 0 0 0 3 3 6 6 6 10 16 19 23 19 23 23 26 32 29 26 29 23 19 23 26 26 19 23 19 23 23 16 26 26 16 13 23 10 10 6 10 10 16 13 13 10 10
0 0 0 0 0 0 0 0 6 6 10 10 13 16 23 23 26 32 32 42 39 29 26 26 29 23 26 32 26 32 23 26 42 42 42 29 26 26 26 16 19 13 10 19 16 19 13 13 6
0 0 0 0 0 0 3 3 0 3 6 6 10 13 13 19 23 26 32 35 39 39 35 26 32 32 23 26 29 26 23 32 35 39 35 39 42 45 35 32 26 23 16 16 13 19 16 16 16
0 0 0 0 0 0 0 0 0 0 0 6 6 13 19 16 23 29 32 39 39 39 35 42 35 39 39 35 35 35 32 29 29 42 39 45 39 35 42 32 29 26 32 26 26 23 13 16 19
0 0 0 0 0 0 0 0 0 0 0 10 13 13 13 23 23 23 29 39 42 45 42 42 42 42 45 45 42 35 32 29 45 48 42 42 45 42 45 45 39 32 32 35 29 26 23 26 16
0 0 0 0 0 0 0 0 0 0 3 6 16 16 19 19 16 19 26 32 39 45 45 42 39 45 42 48 52 45 42 45 48 55 42 45 48 45 42 42 39 35 39 39 35 29 23 23 26
0 0 0 0 0 0 0 3 3 6 6 10 16 16 16 13 19 23 26 26 35 45 48 45 35 39 45 55 52 48 48 52 48 55 55 45 45 42 42 45 42 42 42 48 39 32 32 29 26
0 0 0 0 0 0 0 3 10 13 10 10 16 19 19 16 26 32 29 26 35 45 48 45 42 42 42 52 52 55 52 48 48 52 55 45 45 42 42 42 42 48 42 42 39 42 42 39 39
0 0 0 0 0 0 0 0 13 13 13 13 19 23 19 19 29 29 32 32 32 45 45 55 48 45 48 48 52 58 55 52 52 48 48 45 45 42 42 45 39 42 42 39 42 42 42 42 39
0 0 0 0 0 0 0 3 3 13 13 19 19 19 19 19 23 29 26 29 29 32 48 48 55 55 58 58 61 61 55 58 55 55 42 45 42 45 48 45 42 42 42 42 45 42 42 42 42
0 0 0 0 0 0 0 3 3 6 10 16 16 19 26 29 29 23 32 39 39 39 42 48 58 61 61 61 61 52 52 58 65 58 52 52 42 39 45 48 48 45 45 48 48 45 45 42 42
Height
5900 5900 5900 5901 5900 5900 5898 5898 5898 5898 5897 5896 5895 5895 5894 5894 5895 5896 5894 5892 5892 5891 5892 5892 5893 5894 5895 5895 5896 5897 5898 5899 5899 5900 5901 5902 5903 5903 5903 5904 5904 5904 5905 5905 5905 5905 5905 5905 5905
5902 5902 5903 5902 5901 5901 5900 5899 5900 5900 5899 5898 5897 5896 5895 5895 5894 5894 5893 5892 5892 5892 5892 5893 5894 5895 5896 5896 5897 5898 5899 5899 5900 5901 5902 5903 5904 5904 5905 5905 5905 5906 5906 5906 5906 5906 5906 5906 5906
5904 5904 5905 5903 5902 5902 5902 5901 5901 5901 5900 5899 5898 5898 5897 5896 5895 5894 5894 5893 5893 5893 5893 5894 5895 5896 5897 5897 5898 5899 5900 5900 5901 5902 5903 5904 5905 5905 5906 5906 5906 5907 5907 5907 5907 5907 5907 5907 5908
5906 5906 5906 5905 5904 5904 5904 5903 5903 5902 5902 5901 5900 5899 5898 5896 5895 5895 5894 5894 5894 5894 5894 5895 5896 5897 5897 5898 5899 5899 5900 5901 5902 5903 5904 5905 5906 5906 5907 5907 5908 5908 5908 5908 5908 5908 5909 5909 5909
5908 5908 5907 5906 5906 5906 5906 5905 5905 5905 5903 5902 5901 5900 5899 5897 5896 5895 5895 5895 5895 5895 5895 5896 5896 5897 5898 5898 5899 5901 5901 5902 5903 5904 5905 5906 5907 5907 5908 5908 5909 5909 5909 5909 5909 5909 5910 5910 5910
5911 5909 5909 5908 5908 5908 5908 5907 5907 5907 5905 5904 5903 5901 5900 5898 5897 5896 5896 5896 5896 5896 5897 5897 5898 5898 5899 5899 5900 5901 5902 5903 5904 5905 5906 5907 5907 5908 5909 5909 5910 5910 5910 5910 5910 5910 5910 5910 5910
5912 5911 5910 5910 5910 5910 5910 5910 5909 5908 5907 5906 5904 5903 5901 5900 5899 5898 5898 5897 5897 5897 5898 5898 5899 5899 5900 5900 5901 5902 5903 5904 5905 5906 5907 5908 5908 5909 5910 5910 5910 5911 5911 5911 5911 5911 5911 5911 5911
5913 5914 5912 5912 5912 5912 5912 5911 5911 5909 5908 5907 5906 5904 5903 5902 5901 5900 5899 5899 5898 5899 5899 5899 5900 5900 5901 5902 5902 5903 5903 5904 5905 5907 5907 5908 5909 5910 5910 5911 5911 5911 5911 5912 5912 5912 5912 5911 5911
5915 5916 5914 5914 5914 5914 5914 5913 5912 5911 5910 5909 5907 5906 5905 5903 5902 5901 5901 5900 5900 5900 5900 5900 5900 5901 5902 5902 5903 5904 5904 5905 5906 5907 5908 5909 5910 5910 5911 5911 5911 5911 5912 5912 5912 5911 5911 5911 5911
5916 5916 5916 5917 5917 5916 5915 5914 5914 5913 5911 5910 5909 5908 5906 5904 5904 5903 5902 5902 5901 5901 5901 5901 5901 5902 5902 5903 5904 5904 5905 5906 5907 5908 5909 5909 5910 5911 5911 5911 5911 5911 5912 5911 5911 5911 5911 5911 5911
5917 5918 5918 5918 5918 5917 5917 5916 5915 5914 5913 5912 5911 5909 5908 5906 5905 5905 5904 5903 5903 5903 5903 5903 5903 5903 5903 5904 5904 5905 5906 5907 5908 5908 5909 5910 5910 5911 5911 5911 5912 5912 5912 5912 5911 5911 5911 5911 5911
5919 5918 5919 5919 5919 5918 5918 5917 5917 5916 5916 5914 5912 5911 5910 5909 5907 5906 5906 5905 5905 5904 5904 5904 5904 5904 5904 5905 5905 5906 5907 5908 5909 5909 5910 5910 5911 5911 5911 5912 5912 5912 5912 5912 5911 5911 5911 5911 5910
5918 5918 5919 5920 5920 5919 5919 5918 5918 5917 5916 5915 5914 5913 5912 5910 5909 5908 5907 5907 5906 5906 5906 5905 5905 5905 5905 5906 5906 5907 5908 5909 5909 5910 5910 5911 5911 5912 5912 5912 5912 5912 5912 5912 5911 5911 5911 5911 5910
5919 5919 5920 5920 5921 5920 5920 5920 5920 5918 5917 5917 5915 5914 5913 5912 5911 5910 5909 5908 5907 5907 5907 5906 5906 5906 5906 5906 5907 5907 5908 5909 5910 5910 5911 5911 5912 5912 5912 5912 5912 5912 5912 5911 5911 5911 5911 5910 5910
5920 5920 5921 5921 5921 5921 5921 5921 5920 5919 5918 5917 5916 5915 5914 5913 5911 5910 5910 5909 5908 5908 5907 5907 5906 5906 5906 5907 5907 5908 5909 5909 5910 5911 5911 5912 5912 5912 5912 5912 5912 5912 5911 5911 5911 5911 5910 5910 5909
5920 5920 5920 5921 5921 5921 5922 5921 5920 5919 5918 5917 5917 5916 5915 5914 5912 5911 5910 5910 5909 5908 5908 5908 5907 5907 5907 5907 5908 5909 5909 5910 5910 5911 5911 5912 5912 5912 5912 5912 5912 5912 5911 5911 5911 5910 5910 5909 5909
5919 5919 5919 5920 5920 5920 5921 5920 5919 5918 5918 5918 5917 5916 5915 5914 5913 5912 5911 5910 5909 5909 5908 5908 5908 5908 5908 5908 5909 5909 5910 5910 5911 5911 5912 5912 5912 5912 5912 5912 5912 5912 5911 5911 5910 5909 5909 5908 5908
5918 5918 5918 5918 5918 5919 5919 5920 5919 5918 5918 5918 5917 5915 5915 5914 5913 5912 5911 5911 5910 5909 5909 5908 5908 5908 5908 5909 5909 5910 5910 5910 5911 5911 5912 5912 5912 5912 5912 5912 5912 5911 5911 5910 5909 5908 5908 5908 5907
5915 5916 5916 5917 5917 5918 5918 5918 5919 5918 5918 5917 5916 5915 5914 5913 5913 5912 5911 5911 5910 5910 5909 5909 5908 5908 5908 5909 5909 5910 5910 5911 5911 5912 5912 5912 5912 5912 5912 5912 5911 5911 5910 5909 5908 5908 5907 5907 5906
5913 5914 5914 5915 5915 5916 5916 5916 5917 5916 5916 5916 5915 5915 5914 5913 5913 5912 5911 5910 5910 5910 5909 5909 5909 5909 5909 5909 5909 5910 5910 5911 5911 5911 5912 5912 5912 5912 5911 5911 5910 5910 5909 5908 5907 5907 5906 5905 5904
5910 5911 5911 5912 5913 5913 5914 5914 5914 5914 5914 5914 5914 5913 5913 5912 5912 5912 5911 5910 5910 5909 5909 5909 5909 5909 5909 5909 5909 5909 5910 5910 5911 5911 5911 5911 5911 5911 5911 5910 5909 5909 5908 5907 5906 5906 5905 5904 5903
5907 5909 5909 5910 5910 5911 5911 5911 5912 5911 5912 5912 5912 5912 5911 5911 5911 5911 5910 5909 5909 5909 5909 5909 5909 5909 5908 5909 5909 5909 5909 5910 5910 5910 5910 5910 5910 5910 5909 5909 5908 5907 5906 5906 5905 5904 5903 5903 5902
5904 5906 5906 5907 5907 5908 5908 5908 5909 5908 5909 5910 5910 5910 5909 5909 5909 5909 5909 5909 5909 5908 5908 5908 5908 5908 5908 5908 5908 5909 5909 5908 5908 5908 5908 5908 5908 5908 5908 5907 5906 5906 5905 5904 5903 5902 5901 5901 5900
5901 5902 5903 5903 5904 5905 5905 5905 5905 5905 5906 5907 5907 5906 5906 5906 5906 5907 5907 5907 5907 5907 5907 5907 5907 5907 5907 5907 5907 5907 5907 5907 5907 5907 5907 5907 5906 5906 5906 5905 5905 5904 5903 5902 5901 5900 5899 5899 5898
5898 5899 5899 5900 5900 5901 5902 5901 5903 5902 5903 5903 5903 5903 5903 5903 5903 5904 5904 5905 5905 5905 5905 5905 5905 5905 5905 5905 5905 5905 5905 5905 5905 5905 5905 5904 5904 5904 5903 5903 5902 5901 5900 5899 5898 5897 5896 5896 5895
5893 5894 5895 5896 5896 5897 5897 5897 5899 5899 5899 5899 5900 5900 5900 5900 5900 5901 5901 5902 5902 5902 5903 5903 5903 5903 5902 5902 5902 5902 5903 5903 5903 5902 5902 5902 5901 5901 5900 5900 5899 5898 5897 5895 5894 5893 5893 5892 5892
5889 5890 5891 5891 5891 5892 5892 5894 5894 5895 5895 5895 5896 5896 5896 5897 5897 5898 5898 5898 5899 5899 5899 5899 5899 5899 5899 5899 5899 5899 5899 5899 5899 5899 5898 5898 5898 5897 5897 5896 5895 5894 5893 5892 5891 5890 5889 5888 5887
5886 5887 5887 5887 5887 5887 5887 5889 5890 5891 5891 5891 5892 5892 5893 5893 5894 5894 5895 5895 5895 5895 5895 5895 5895 5895 5895 5895 5896 5896 5895 5895 5895 5895 5894 5894 5893 5893 5892 5892 5891 5889 5888 5887 5886 5885 5884 5883 5883
5881 5882 5882 5882 5883 5883 5882 5886 5886 5886 5886 5887 5888 5888 5889 5889 5889 5890 5890 5891 5891 5891 5891 5891 5891 5891 5891 5891 5891 5891 5891 5890 5890 5890 5889 5889 5888 5888 5887 5886 5885 5884 5883 5883 5882 5881 5880 5879 5878
5876 5877 5877 5878 5878 5878 5877 5881 5881 5881 5881 5882 5883 5883 5883 5884 5884 5884 5885 5885 5886 5886 5886 5886 5886 5886 5886 5886 5886 5885 5885 5885 5885 5884 5884 5883 5883 5882 5881 5880 5879 5879 5878 5877 5877 5876 5875 5873 5873
Wind_Speed
17 16 15 15 16 15 15 15 14 12 11 11 10 10 9 8 6 5 5 4 4 6 6 6 6 6 6 7 8 7 8 8 7 7 8 8 8 9 9 8 9 9 9 9 9 8 9 9 9
17 15 15 16 16 16 16 16 14 13 12 11 10 10 9 8 7 6 6 5 5 6 6 6 6 6 6 7 8 8 7 7 7 7 8 7 7 7 8 8 8 8 8 8 8 8 8 8 8
15 15 15 15 16 17 17 17 16 15 13 12 11 10 9 8 7 7 6 5 6 6 6 6 7 6 6 7 8 8 7 7 7 7 8 7 6 6 8 8 8 8 8 7 7 7 7 7 7
15 15 15 15 16 17 17 18 18 16 14 13 12 11 10 9 8 7 7 7 7 7 7 7 6 6 6 6 6 6 7 7 7 8 8 8 7 6 7 8 7 7 7 7 7 7 7 6 6
14 14 15 16 16 16 17 18 17 16 14 14 13 12 11 10 10 9 8 7 7 6 6 6 6 6 6 6 6 6 7 8 7 8 7 8 7 7 7 7 6 6 6 6 6 6 6 5 5
13 14 15 16 15 15 16 17 16 15 15 14 14 13 11 11 10 9 8 8 7 6 6 5 6 6 6 6 6 6 7 8 7 7 8 8 7 6 6 6 6 6 5 5 5 4 4 4 5
12 14 15 15 14 14 15 15 14 15 14 14 14 14 12 12 11 10 9 8 7 6 6 6 6 6 6 6 7 7 8 7 7 7 7 7 6 6 6 5 5 5 4 4 4 4 3 3 4
13 13 13 14 13 13 15 15 14 14 14 14 15 15 13 13 12 11 10 9 8 7 6 5 6 7 6 7 6 7 7 7 8 7 7 7 6 5 5 4 4 4 3 2 2 2 2 2 3
12 13 13 14 14 14 14 14 14 14 13 14 15 15 15 14 13 12 10 9 8 7 7 7 7 7 7 7 6 6 7 7 8 7 7 6 6 5 5 4 3 3 2 2 1 1 1 1 2
10 10 11 12 12 13 13 14 15 14 14 15 15 15 15 14 14 13 11 10 9 8 8 7 7 7 7 7 7 6 6 7 7 7 7 6 6 5 4 4 3 2 2 1 1 1 1 1 1
9 9 9 10 10 12 13 13 14 15 14 13 14 14 14 14 13 12 12 11 10 9 7 7 7 6 6 6 7 7 6 6 6 6 7 6 5 5 4 3 2 3 2 1 1 0 0 1 1
6 7 7 9 10 11 13 13 13 14 13 13 13 13 13 13 12 11 12 11 10 9 9 7 6 6 6 6 7 6 6 5 5 6 6 6 5 4 3 3 3 2 2 1 1 0 0 0 0
5 5 5 7 9 10 10 12 12 13 13 12 12 12 12 11 11 11 10 10 10 10 9 9 7 6 6 6 7 7 6 6 6 6 6 5 4 3 3 3 2 2 2 2 1 0 1 1 1
5 4 5 7 7 8 8 9 10 11 12 12 12 12 12 11 11 10 10 9 9 9 8 8 8 7 6 6 6 7 6 5 5 5 5 4 4 3 2 2 2 2 2 2 1 1 1 1 2
5 3 3 4 5 5 7 8 9 10 11 12 11 11 11 10 10 10 10 10 9 9 8 7 7 6 6 6 6 6 6 5 5 5 5 4 4 3 3 3 3 2 2 1 1 1 1 2 3
6 3 1 1 3 4 6 7 9 9 10 10 10 10 10 10 9 8 9 9 9 8 7 7 7 6 6 5 5 5 5 5 5 5 5 4 4 3 3 3 3 2 1 1 1 2 2 3 3
7 6 3 2 3 5 7 8 9 7 8 9 10 10 9 9 8 7 8 8 9 8 8 7 7 6 5 5 5 5 6 5 5 5 5 5 4 3 3 2 2 1 1 1 2 2 3 3 3
7 7 4 3 4 6 7 8 8 7 8 9 10 9 9 9 7 6 7 7 7 7 7 7 6 6 5 5 5 4 5 5 5 5 5 4 4 4 3 2 1 1 2 2 3 2 3 3 3
9 8 6 4 6 6 7 7 7 7 7 9 9 9 10 9 6 5 6 6 6 6 5 5 5 5 4 4 4 4 4 4 4 3 3 3 3 2 2 2 2 2 2 2 2 2 3 3 3
10 9 7 6 7 7 8 8 8 8 6 8 9 10 9 8 6 5 5 5 5 4 4 4 4 4 4 3 3 3 3 3 3 2 2 2 1 1 1 2 2 2 2 2 3 3 3 3 4
12 12 10 9 9 10 11 11 10 9 8 8 8 10 10 9 6 4 5 4 4 3 4 3 3 2 3 2 2 2 2 2 2 1 1 1 1 1 1 2 3 3 3 3 3 4 4 4 5
14 12 11 11 12 13 14 13 11 10 10 8 8 9 9 9 6 5 4 4 3 3 3 2 1 1 1 1 1 1 1 1 1 1 2 2 3 3 3 4 4 4 4 4 5 5 5 5 5
13 13 13 13 14 14 14 15 11 11 9 8 8 8 9 9 8 7 6 5 4 3 3 2 2 1 1 1 1 1 2 2 2 2 3 3 4 4 4 5 6 6 6 6 6 6 6 6 6
13 14 15 15 16 17 14 15 12 10 9 8 7 8 9 9 9 9 8 7 6 5 4 4 4 3 3 3 3 3 4 4 4 4 4 4 5 5 6 7 7 8 8 8 8 8 8 8 8
13 15 16 17 17 16 15 16 12 11 10 9 9 9 10 9 10 10 9 9 9 8 7 7 6 6 5 5 5 6 6 6 6 6 6 6 6 7 7 8 9 9 10 10 10 10 10 9 9
13 15 16 17 16 15 16 16 13 12 12 11 10 10 10 10 10 9 10 11 11 11 10 10 9 8 8 8 8 8 8 8 8 8 8 8 8 9 9 10 10 11 11 11 11 11 11 12 12
14 15 16 17 17 18 17 16 15 13 13 11 11 12 12 12 11 10 10 11 12 12 12 11 11 11 10 10 10 10 10 10 10 10 10 11 11 11 11 12 13 13 13 13 13 13 13 14 14
15 15 17 19 20 20 19 17 16 14 14 13 14 13 13 14 13 13 12 12 12 13 13 13 13 12 12 12 12 12 11 12 12 13 13 13 13 13 13 14 15 15 15 15 15 14 14 14 14
16 16 18 19 21 21 22 20 19 18 16 15 15 15 16 16 16 15 14 14 15 15 15 15 14 14 14 14 14 14 14 14 15 15 16 16 16 16 16 17 16 16 17 17 17 16 16 16 16
18 18 18 20 20 21 22 21 18 20 19 17 18 19 18 17 18 18 17 17 17 16 17 17 17 17 17 17 18 18 18 18 18 18 18 19 19 19 19 19 19 18 19 19 19 18 18 18 18
Wind_Direction
90 87 80 71 67 65 64 64 57 55 51 49 47 48 46 46 54 61 60 73 103 121 124 127 129 129 126 127 127 129 131 136 140 139 138 135 133 129 125 117 117 118 116 114 114 113 113 117 118
89 84 74 68 63 60 59 60 58 55 53 52 49 49 47 49 52 58 69 77 99 111 116 123 127 125 127 130 134 139 140 140 144 142 142 141 139 134 129 122 123 122 120 117 114 111 109 110 115
87 78 71 65 61 56 55 55 55 53 53 51 47 46 47 51 54 60 70 80 89 102 113 116 121 124 127 131 137 141 144 146 150 150 148 148 143 143 137 128 126 122 120 120 113 112 110 110 112
83 76 70 62 58 57 54 52 52 49 49 51 50 48 48 52 61 65 70 81 87 92 107 121 126 127 125 133 138 141 152 150 152 151 148 146 144 144 138 132 128 126 122 121 119 115 111 109 114
83 75 69 60 57 55 53 52 50 46 46 50 50 50 49 52 59 67 73 79 86 90 98 117 126 130 132 135 137 140 153 148 145 145 142 144 143 141 139 135 135 130 122 120 118 116 113 114 117
77 73 67 62 57 53 52 53 49 48 46 49 49 52 53 54 61 67 73 79 88 98 103 106 110 117 119 130 134 134 149 151 154 142 140 144 142 141 141 140 139 133 124 121 121 118 110 111 117
72 64 58 59 54 54 52 51 49 48 44 47 50 50 54 56 57 64 71 79 88 98 105 106 113 114 121 129 135 144 145 147 151 152 150 151 146 148 147 148 145 140 135 126 126 119 107 107 116
66 60 59 55 55 55 51 47 47 46 42 44 48 49 51 54 55 60 68 75 80 88 95 100 115 119 121 129 134 140 140 148 149 152 154 156 154 151 145 147 147 149 147 147 139 130 118 120 128
64 62 56 46 47 51 49 45 45 45 41 42 43 45 45 51 54 58 64 72 80 88 88 95 114 124 125 125 129 131 132 141 143 146 148 147 146 148 153 152 151 156 157 156 164 167 168 155 164
66 53 53 46 40 41 45 43 41 39 35 39 41 43 43 48 54 59 64 71 78 82 83 89 111 120 124 126 129 134 137 148 146 144 143 139 140 146 154 160 158 161 165 165 181 188 184 187 189
70 59 49 50 43 38 40 40 38 35 33 35 40 43 44 46 52 59 65 68 74 77 84 87 96 104 115 120 126 133 134 143 150 149 144 143 142 146 148 156 159 168 173 181 178 180 75 153 203
98 74 49 43 43 42 40 39 35 31 30 28 33 41 44 45 48 54 61 64 69 75 80 84 85 100 108 116 121 128 129 130 139 145 145 143 142 140 136 140 137 141 150 170 181 231 307 238 240
117 94 68 47 42 41 36 36 32 27 26 23 26 34 40 47 52 55 58 61 66 69 69 71 75 93 104 112 122 126 126 123 130 138 141 141 139 136 139 136 129 125 121 125 141 227 264 254 260
138 116 78 57 44 38 26 24 23 22 19 21 26 29 33 45 53 55 57 59 64 68 69 69 72 79 95 110 121 123 128 133 127 131 139 141 142 137 140 140 136 146 141 136 127 251 303 277 278
161 144 100 55 34 24 9 16 15 15 13 19 22 23 27 37 47 53 54 54 59 64 65 66 70 76 88 103 115 127 129 135 138 139 144 143 141 150 154 147 139 141 159 192 241 277 295 308 297
174 177 192 23 354 359 360 1 3 3 6 13 13 16 19 23 32 45 52 52 54 58 62 66 73 80 90 96 113 124 123 129 135 141 147 144 144 147 148 143 138 128 138 217 272 270 276 294 294
191 194 220 285 325 333 340 341 344 352 356 359 1 5 11 15 20 35 45 48 50 52 59 65 72 80 88 99 112 119 119 119 122 122 128 134 133 136 137 123 107 90 24 319 307 293 294 299 306
195 212 231 263 286 299 312 321 329 336 339 342 346 348 356 5 17 31 42 44 46 48 55 61 66 74 88 97 103 105 116 124 126 125 120 117 108 99 90 89 84 29 1 333 320 307 297 297 307
200 205 217 239 262 271 282 297 305 318 322 327 332 338 342 344 5 24 30 34 32 34 42 55 63 69 87 106 111 114 119 128 132 129 124 112 102 90 66 51 28 360 355 345 332 315 299 299 305
204 215 229 239 260 265 273 283 291 302 315 323 327 331 338 340 352 14 25 29 28 30 38 56 69 72 82 94 104 114 132 142 140 132 127 131 129 89 31 16 352 334 339 341 337 328 311 297 296
214 223 232 242 256 265 269 277 288 294 288 304 316 322 328 334 343 357 10 15 14 18 24 38 62 84 93 95 100 100 114 134 147 158 159 183 251 289 308 322 333 330 313 308 304 304 308 312 302
226 230 240 245 254 257 262 270 277 290 286 293 305 316 321 326 334 339 345 353 355 2 5 6 27 71 103 111 114 123 141 173 197 226 245 261 276 285 292 304 311 316 314 300 294 291 294 298 302
238 235 240 247 253 250 256 266 265 277 278 285 290 301 309 315 316 313 319 326 326 325 326 322 308 290 263 232 243 237 245 252 252 258 259 265 279 284 289 297 301 302 305 302 293 289 290 294 296
241 240 243 248 252 251 251 258 255 266 272 276 282 288 294 304 308 304 299 302 298 290 289 293 288 277 271 265 262 257 257 260 255 263 265 267 279 286 290 292 295 298 298 298 293 287 286 285 285
239 239 243 248 249 251 247 254 256 258 273 278 278 285 292 293 297 298 288 283 283 278 278 279 275 273 273 269 266 266 265 260 259 265 270 274 280 285 287 289 290 294 296 295 291 283 280 281 285
239 242 247 251 252 253 246 252 256 260 264 267 272 276 283 282 284 290 282 272 272 273 272 272 270 270 269 269 268 266 262 262 262 265 267 271 274 276 278 282 286 288 291 293 289 283 281 281 282
248 250 253 256 260 262 251 250 251 250 259 263 266 264 270 273 276 278 278 275 269 272 274 275 271 268 266 265 265 263 262 261 261 264 267 268 270 275 277 279 281 284 286 289 289 286 284 284 283
250 256 254 256 260 262 259 255 250 252 256 263 263 259 264 268 269 272 271 270 271 272 275 274 270 267 266 265 265 265 263 264 262 263 266 268 271 275 278 278 280 281 282 285 287 287 284 286 286
245 252 254 257 260 262 262 260 254 257 258 258 257 256 263 268 269 272 268 266 267 267 269 272 272 270 268 267 265 264 264 264 263 263 266 268 271 275 277 277 279 282 285 282 283 284 285 284 284
242 247 252 256 259 260 264 263 256 258 259 261 260 258 257 265 273 273 272 268 267 268 268 268 271 270 270 268 266 266 265 266 265 265 266 268 271 274 277 278 278 281 283 285 284 283 284 284 284